Regional Weather Roundup
Issued by NWS

Home | Current Version | Previous Version | Graphics & Text | Print | Product List | Glossary On
Versions: 1 2 3 4 5 6 7 8 9 10 11 12 13 14 15 16 17 18 19 20 21 22 23 24 25 26 27 28 29 30 31 32 33 34 35 36 37 38 39 40 41 42 43 44 45 46 47 48 49 50
000
ASUS43 KMKX 232201
RWRWI

WISCONSIN REGIONAL WEATHER ROUNDUP
NATIONAL WEATHER SERVICE MILWAUKEE/SULLIVAN WI
500 PM CDT MON OCT 23 2017

NOTE: "FAIR" INDICATES FEW OR NO CLOUDS BELOW 12,000 FEET WITH NO
SIGNIFICANT WEATHER AND/OR OBSTRUCTIONS TO VISIBILITY.

WIZ001-002-006>008-014>016-023>028-232300-
NORTHWEST WISCONSIN

CITY           SKY/WX    TMP DP  RH WIND       PRES   REMARKS
SUPERIOR ARPT  CLEAR     54  42  63 NW17G24   29.73R
ASHLAND        CLOUDY    59  42  53 NW9       29.67S
HAYWARD        CLOUDY    58  39  49 W8        29.69S
SIREN          PTSUNNY   54  39  57 NW15G24   29.75R
CUMBERLAND     CLOUDY    54  36  50 NW17      29.71S
RICE LAKE      CLOUDY    57  39  50 W9G17     29.72S
CHETEK         CLOUDY    57  42  58 NW6       29.70S
LADYSMITH      CLOUDY    56  43  61 W3        29.70F
EAU CLAIRE     NOT AVBL
MENOMONIE      PTSUNNY   57  41  55 W16G28    29.72R
NEW RICHMOND   PTSUNNY   54  37  54 NW23G29   29.76R
OSCEOLA        CLOUDY    52  41  64 W12G25    29.80R
$$

WIZ003>005-009-010-017-018-232300-
NORTH CENTRAL WISCONSIN

CITY           SKY/WX    TMP DP  RH WIND       PRES   REMARKS
MANITOWISH WTR CLOUDY    54  42  64 SE5       29.67S
ARBOR VITAE    MOCLDY    55  44  67 CALM      29.68S
WOODRUFF       MOCLDY    55  44  67 CALM      29.68S
RHINELANDER    CLOUDY    52  43  71 CALM      29.69S
EAGLE RIVER    CLOUDY    52  39  61 W3        29.67F
LAND O LAKES   CLOUDY    55  38  54 SW3       29.70S
PHILLIPS       LGT RAIN  55  43  64 CALM      29.67F
TOMAHAWK       CLOUDY    52  40  65 CALM      29.69F
MEDFORD        CLOUDY    50  42  74 SW3       29.69S
MERRILL        CLOUDY    54  42  63 W5        29.68F
$$

WIZ029-030-035-036-043>047-232300-
CENTRAL WISCONSIN

CITY           SKY/WX    TMP DP  RH WIND       PRES   REMARKS
WAUSAU         CLOUDY    53  41  63 W5        29.67F
MOSINEE        CLOUDY    54  43  66 W6        29.70F
MARSHFIELD     CLOUDY    53  41  63 W8        29.69S
STEVENS POINT  CLOUDY    54  41  61 W5        29.69S
WAUPACA        CLOUDY    55  46  69 CALM      29.70S
WAUTOMA        NOT AVBL
WISC RAPIDS    CLOUDY    56  43  61 W6        29.70S
CAMP DOUGLAS   NOT AVBL
$$

WIZ011>013-019>022-031-037>040-048>050-232300-
NORTHEAST WISCONSIN

CITY           SKY/WX    TMP DP  RH WIND       PRES   REMARKS
ANTIGO         CLOUDY    49  41  72 S3        29.69F
SHAWANO        CLOUDY    54  46  75 CALM      29.69F
OCONTO         CLOUDY    50  46  84 CALM      29.68F
STURGEON BAY   CLOUDY    51  46  83 NE6       29.68F
GREEN BAY      CLOUDY    53  48  83 W3        29.69R
MANITOWOC      CLOUDY    52  45  77 E3        29.68S
APPLETON       MOCLDY    54  39  58 W5        29.68S
CLINTONVILLE   NOT AVBL
OSHKOSH        CLOUDY    53  42  66 CALM      29.68R
$$

WIZ032>034-041-042-053>061-232300-
SOUTHWEST WISCONSIN

CITY           SKY/WX    TMP DP  RH WIND       PRES   REMARKS
LA CROSSE      CLOUDY    56  47  71 S5        29.72S
SPARTA         LGT RAIN  52  46  78 W6        29.73S
VIROQUA        CLOUDY    50  47  88 NW3       29.73S
BOSCOBEL       CLOUDY    53  47  79 NW6       29.74R
PRAIRIE DU CHI CLOUDY    54  46  74 CALM      29.74F
PLATTEVILLE    CLOUDY    57  45  62 W13G21    29.73S
$$

WIZ056-057-062-063-064-067-068-232300-
SOUTH CENTRAL WISCONSIN

CITY           SKY/WX    TMP DP  RH WIND       PRES   REMARKS
REEDSBURG      CLOUDY    57  43  61 W8        29.70R
BARABOO/DELLS  CLOUDY    55  43  64 W6        29.70S
LONE ROCK      NOT AVBL
MINERAL POINT  CLOUDY    59  45  58 NW8       29.72R
MADISON        CLOUDY    57  44  62 VRB6      29.68F
MIDDLETON      CLOUDY    58  45  62 NW9       29.70S
WATERTOWN      CLOUDY    52  46  78 CALM      29.69S
MONROE         CLOUDY    55  43  62 W10       29.71R
JANESVILLE     CLOUDY    55  45  67 CALM      29.70S
$$

WIZ051-052-058>065-066-070>072-232300-
SOUTHEAST WISCONSIN

CITY           SKY/WX    TMP DP  RH WIND       PRES   REMARKS
MILWAUKEE      CLOUDY    54  47  77 NW6       29.67F
WAUKESHA       MOCLDY    50  43  76 W7        29.68F
MILWAUKEE/TIMM PTCLDY    52  43  71 W7        29.67F
RACINE         CLOUDY    53  49  86 CALM      29.69F
BURLINGTON     CLOUDY    51  47  86 CALM      29.68F
KENOSHA        CLOUDY    52  48  86 CALM      29.67F
FOND DU LAC    CLOUDY    53  42  66 CALM      29.69R
SHEBOYGAN      CLOUDY    52  47  83 NW5       29.68S
WEST BEND      CLOUDY    52  43  71 W6        29.68S
JUNEAU         CLOUDY    51  44  76 CALM      29.71R
$$

LSZ147-162-232300-
LAKE SUPERIOR

STATION/POSITION TIME  TEMP    WIND        PRES    WAVE
                       AIR SEA DIR/SP/G            HT/PER
                 (UTC) (F)     (DEG/KT/KT) (MB)    (FT/S)
W MID LAKE BUOY  2050   53 51              1004.7F   2/ 5
DEVILS ISLAND    2100   58     230/ 15/ 16 1004.5F
SAXON HARBOR     2130   60      70/  2/  3 1004.4S
$$

LMZ867-665-643>646-232300-
LAKE MICHIGAN

STATION/POSITION TIME  TEMP    WIND        PRES    WAVE
                       AIR SEA DIR/SP/G            HT/PER
                 (UTC) (F)     (DEG/KT/KT) (MB)    (FT/S)
S GREEN BAY BUOY 2130   52 58   20/  6/  8 1004.9F
N MID LAKE BUOY  2050   54 57   20/  6/  6 1006.8F   0
NORTHPORT PIER   2140   53      20/  6/  9 1005.4F
KEWAUNEE LAKESHO 2124   50      30/  3/  4 1004.4
SHEBOYGAN LAKESH 2100   50     350/  8/  8 1005.0F
PORT WASHINGTON  2140   54     320/  2/  4 1006.1S
MILWAUKEE LAKESH 2150   54     320/  4/  5   N/A
S MID LAKE BUOY  2050   54 60  350/ 17/ 19 1004.5R   3/ 4
KENOSHA   LAKESH 2100   53     300/  4/  9 1005.4
$$

TC  - TEMPERATURE IN CELSIUS
VSB - VISIBILITY IN STATUTE MILES
WCI - WIND CHILL INDEX
HX  - HEAT INDEX





USA.gov is the U.S. government's official web portal to all federal, state and local government web resources and services.